Regional Weather Roundup
Issued by NWS Sterling, VA

Home | Current Version | Previous Version | Text Only | Print | Product List | Glossary Off
Versions: 1 2 3 4 5 6 7 8 9 10 11 12 13 14 15 16 17 18 19 20 21 22 23 24 25 26 27

000
ASUS41 KLWX 190911
RWRLWX

REGIONAL WEATHER ROUNDUP
NATIONAL WEATHER SERVICE BALTIMORE MD/WASHINGTON DC
400 AM EST MON FEB 19 2018

Note: "FAIR" indicates few or no clouds below 12,000 feet
with no significant weather and/or obstructions to visibility.
 TC=TEMPERATURE CELSIUS

 * =Non NWS site. Station does not report precipitation (e.g. rain,
    snow, etc.), thunder, or fog.

DCZ001-MDZ009-015-VAZ040>042-051-053>054-191000-
WASHINGTON METRO

CITY           SKY/WX    TMP DP  RH WIND       PRES   REMARKS
WASHINGTON NAT CLOUDY    40  34  79 SW5       30.50S
DULLES         CLOUDY    39  34  82 S7        30.46F WCI  34
ANDREWS AFB    CLOUDY    37  32  82 S5        30.47S WCI  33
FT BELVOIR     CLOUDY    40  35  85 CALM      30.48F
QUANTICO       CLOUDY    41  38  89 S9        30.50S
COLLEGE PARK*  CLOUDY    38  32  76 CALM      30.49R
LEESBURG*      CLOUDY    41  36  81 S12G17    30.46F WCI  34
MANASSAS*      CLOUDY    39  34  82 S6        30.47F WCI  35
GAITHERSBURG*  CLOUDY    38  32  79 S8        30.47S WCI  32

$$

MDZ006>007-011-014-191000-
BALTIMORE METRO

CITY           SKY/WX    TMP DP  RH WIND       PRES   REMARKS
BWI AIRPORT    CLOUDY    34  33  96 CALM      30.48S
MD SCIENCE CTR   N/A     38  34  85 MISG      30.50R
MARTIN STATE   CLOUDY    34  34 100 CALM      30.51R
ANNAPOLIS      CLOUDY    41  37  86 SE8       30.48S
FORT MEADE*    CLOUDY    32  32 100 CALM      30.51S

$$

MDZ012-015-019>023-191000-
MARYLAND EASTERN SHORE

CITY           SKY/WX    TMP DP  RH WIND       PRES   REMARKS
OCEAN CITY     FAIR      39  36  89 CALM      30.50F
SALISBURY      FAIR      30  29  96 CALM      30.49F
BAY BRIDGE AP* FAIR      37  34  87 SE5       30.49S WCI  34
CAMBRIDGE*     CLEAR     36  34  93 SE8       30.49F WCI  29
EASTON*        FAIR      38  33  83 S5        30.53S WCI  34

$$

MDZ017>025-191000-
SOUTHERN MARYLAND

CITY           SKY/WX    TMP DP  RH WIND       PRES   REMARKS
PATUXENT RIVER FAIR      40  37  89 SE10      30.48F WCI  33
ST INIGOES     FAIR      42  31  64 E6        30.47F
LEONARDTOWN*   FAIR      37  34  87 CALM      30.49S

$$

MDZ003>005-191000-
NORTH CENTRAL MARYLAND

CITY           SKY/WX    TMP DP  RH WIND       PRES   REMARKS
FREDERICK*     CLOUDY    37  34  87 S6        30.49S WCI  33
HAGERSTOWN APT FAIR      40  31  70 S15       30.40F WCI  32
WESTMINSTER*   CLOUDY    37  34  87 S8        30.44S WCI  31

$$

MDZ501>502-191000-
WESTERN MARYLAND

CITY           SKY/WX    TMP DP  RH WIND       PRES   REMARKS
OAKLAND*         N/A     34  32  93 SE15G21   30.20F WCI  24
CUMBERLAND*    FAIR      32  30  93 NW3       30.38S

$$

VAZ025>031-191000-
SHENANDOAH VALLEY

CITY           SKY/WX    TMP DP  RH WIND       PRES   REMARKS
WINCHESTER*    FAIR      39  32  75 S9G17     30.40S WCI  33
FRONT ROYAL*   FAIR      41  34  75 SW3       30.38S
LURAY*         FAIR      41  36  81 SW7       30.38F
NEW MARKET*    CLOUDY    32  32  98 CALM      30.37F
STAUNTON*      MOCLDY    41  35  77 S9        30.41R
WAYNESBORO*    CLOUDY    41  36  84 SE6       30.39R

$$

WVZ021-048>050-054>055-191000-
EASTERN WEST VIRGINIA PANHANDLE

CITY           SKY/WX    TMP DP  RH WIND       PRES   REMARKS
MARTINSBURG    FAIR      39  30  70 SE8       30.39F WCI  33
PETERSBURG*    MOCLDY    35  32  88 SE3       30.32S

$$

VAZ036>039-050-191000-
CENTRAL FOOTHILLS

CITY           SKY/WX    TMP DP  RH WIND       PRES   REMARKS
CHARLOTTESVILL MOCLDY    42  35  76 S6        30.44S
CULPEPER*      CLOUDY    40  33  77 CALM      30.47F
ORANGE*        CLOUDY    37  34  87 CALM      30.46S
GORDONSVILLE*  CLOUDY    40  35  84 CALM      30.45S
WARRENTON*     CLOUDY    40  32  72 SE3       30.45F

$$

VAZ055>057-191000-
NORTH AND CENTRAL PIEDMONT

CITY           SKY/WX    TMP DP  RH WIND       PRES   REMARKS
FREDERICKSBRG* CLOUDY    39  35  85 SE5       30.47F
STAFFORD*      MOCLDY    36  36 100 CALM      30.51F

$$

NCZ024-NYZ072-PAZ021-071-VAZ022-071-191000-
OTHER REGIONAL OBSERVATIONS

CITY           SKY/WX    TMP DP  RH WIND       PRES   REMARKS
NEW YORK CITY  FAIR      37  29  72 VRB3      30.54S
PHILADELPHIA   MOCLDY    37  29  72 SE8       30.51F WCI  31
PITTSBURGH     CLOUDY    36  28  73 E3        30.15S
ROANOKE        LGT RAIN  42  40  92 CALM      30.42S
RICHMOND       CLOUDY    36  34  92 E3        30.46F
RALEIGH        LGT RAIN  41  39  93 E8        30.43F FOG

$$

ANZ530>537-191000-
MARINE OBSERVATIONS

STATION/POSITION TIME  TEMP    WIND        PRES
                       AIR SEA DIR/SP/G
                 (UTC) (F)     (DEG/KT/KT) (MB)
THOMAS PT LIGHT  0900   39 38  170/  8/  9   N/A
BALT KEY BRIDGE  0848   38     120/  6/  7 1032.5R
COVE POINT       0848   40     180/ 12/ 13 1033.0R
LEWISETTA        0848   42 42  170/  8/ 10 1032.1F
SOLOMONS ISLAND  0848   41 40  130/  7/  8 1031.9S

$$





USA.gov is the U.S. government's official web portal to all federal, state and local government web resources and services.